Mora, MN

1:00 AM CDT on April 24, 2018 (GMT -0500)
Mora Municipal

Weather History for KJMR - October, 2012

Change the Weather History Date:

Thursday, October 18, 2012

  Actual Average Record
Temperature  
Mean Temperature 46 °F -  
Max Temperature 50 °F 54 °F 80 °F (1953)
Min Temperature 42 °F 28 °F 11 °F (1987)
Degree Days  
Heating Degree Days 19    
Moisture  
Dew Point 41 °F    
Average Humidity 83    
Maximum Humidity 93    
Minimum Humidity 66    
Precipitation  
Precipitation 0.00 in - - ()
Sea Level Pressure  
Sea Level Pressure 29.25 in    
Wind  
Wind Speed 2 mph (West)    
Max Wind Speed 6 mph    
Max Gust Speed -    
Visibility 10 miles    
Events      
Averages and records for this station are not official NWS values.
T = Trace of Precipitation, MM = Missing Value Source: NWS Daily Summary

Daily Weather History Graph

Daily Weather History Graph

Search for Another Location

Airport or City:

Astronomy

Oct. 18, 2012 Rise Set
Actual Time 7:34 AM CDT 6:20 PM CDT
Civil Twilight 7:04 AM CDT 6:51 PM CDT
Nautical Twilight 6:29 AM CDT 7:25 PM CDT
Astronomical Twilight 5:55 AM CDT 8:00 PM CDT
Moon 11:28 AM CDT (10/18) 8:44 PM CDT (10/18)
Length of Visible Light 11h 46m
Length of Day
10h 46m
Waxing Crescent, 14% of the Moon is Illuminated
Oct 18
Waxing Crescent
Oct 21
First Quarter
Oct 29
Full
Nov 6
Last Quarter
Nov 13
New

Hourly Weather History & Observations

Time (CDT) Temp. Windchill Dew Point Humidity Pressure Visibility Wind Dir Wind Speed Gust Speed Precip Events Conditions
12:01 AM 44.6 °F 43.1 °F 37.4 °F 76% 29.24 in 10.0 mi West 3.5 mph - N/A   Overcast
12:21 AM 44.6 °F 42.2 °F 39.2 °F 81% 29.23 in 10.0 mi WSW 4.6 mph - N/A   Overcast
12:41 AM 44.6 °F 42.2 °F 39.2 °F 81% 29.23 in 10.0 mi WSW 4.6 mph - N/A   Overcast
1:01 AM 44.6 °F 42.2 °F 39.2 °F 81% 29.23 in 10.0 mi SW 4.6 mph - N/A   Overcast
1:21 AM 44.6 °F 43.1 °F 39.2 °F 81% 29.22 in 10.0 mi West 3.5 mph - N/A   Overcast
1:41 AM 44.6 °F 43.1 °F 39.2 °F 81% 29.22 in 10.0 mi WSW 3.5 mph - N/A   Overcast
2:01 AM 44.6 °F 43.1 °F 41.0 °F 87% 29.22 in 10.0 mi WSW 3.5 mph - N/A   Overcast
2:21 AM 44.6 °F 41.4 °F 41.0 °F 87% 29.21 in 10.0 mi West 5.8 mph - N/A   Overcast
2:39 AM 44.6 °F 41.4 °F 41.0 °F 87% 29.21 in 10.0 mi WSW 5.8 mph - N/A   Overcast
3:01 AM 44.6 °F 41.4 °F 41.0 °F 87% 29.21 in 10.0 mi WSW 5.8 mph - N/A   Overcast
3:21 AM 44.6 °F 43.1 °F 41.0 °F 87% 29.21 in 10.0 mi WSW 3.5 mph - N/A   Overcast
3:41 AM 44.6 °F 42.2 °F 41.0 °F 87% 29.20 in 10.0 mi WSW 4.6 mph - N/A   Overcast
4:01 AM 44.6 °F 43.1 °F 41.0 °F 87% 29.20 in 10.0 mi WSW 3.5 mph - N/A   Overcast
4:21 AM 44.6 °F 43.1 °F 41.0 °F 87% 29.20 in 10.0 mi WSW 3.5 mph - N/A   Overcast
4:41 AM 42.8 °F - 41.0 °F 93% 29.18 in 4.0 mi Calm Calm - N/A   Heavy Drizzle
5:01 AM 42.8 °F - 41.0 °F 93% 29.18 in 10.0 mi Calm Calm - N/A   Overcast
5:21 AM 42.8 °F - 41.0 °F 93% 29.18 in 5.0 mi Calm Calm - N/A   Overcast
5:41 AM 42.8 °F - 41.0 °F 93% 29.18 in 7.0 mi Calm Calm - N/A   Overcast
6:01 AM 42.8 °F - 41.0 °F 93% 29.17 in 3.0 mi Calm Calm - N/A   Overcast
6:41 AM 42.8 °F - 41.0 °F 93% 29.17 in 4.0 mi Calm Calm - N/A   Overcast
7:01 AM 42.8 °F - 41.0 °F 93% 29.17 in 7.0 mi Calm Calm - N/A   Overcast
7:21 AM 42.8 °F - 41.0 °F 93% 29.16 in 7.0 mi Calm Calm - N/A   Overcast
7:41 AM 42.8 °F - 41.0 °F 93% 29.17 in 7.0 mi Calm Calm - N/A   Overcast
8:01 AM 42.8 °F - 41.0 °F 93% 29.17 in 10.0 mi Calm Calm - N/A   Overcast
8:21 AM 42.8 °F - 41.0 °F 93% 29.18 in 10.0 mi Calm Calm - N/A   Overcast
8:41 AM 42.8 °F - 41.0 °F 93% 29.19 in 10.0 mi Calm Calm - N/A   Overcast
9:01 AM 42.8 °F - 41.0 °F 93% 29.18 in 10.0 mi Calm Calm - N/A   Overcast
9:21 AM 44.6 °F - 42.8 °F 93% 29.18 in 10.0 mi Calm Calm - N/A   Overcast
9:41 AM 44.6 °F - 42.8 °F 93% 29.18 in 10.0 mi Calm Calm - N/A   Overcast
10:01 AM 44.6 °F - 42.8 °F 93% 29.18 in 10.0 mi Calm Calm - N/A   Overcast
10:21 AM 44.6 °F - 42.8 °F 93% 29.19 in 10.0 mi Calm Calm - N/A   Overcast
10:41 AM 44.6 °F - 41.0 °F 87% 29.19 in 10.0 mi Calm Calm - N/A   Overcast
11:01 AM 44.6 °F 43.1 °F 41.0 °F 87% 29.19 in 10.0 mi North 3.5 mph - N/A   Overcast
11:21 AM 44.6 °F 43.1 °F 41.0 °F 87% 29.20 in 10.0 mi NNW 3.5 mph - N/A   Overcast
11:41 AM 44.6 °F - 39.2 °F 81% 29.20 in 10.0 mi Calm Calm - N/A   Overcast
12:01 PM 44.6 °F 42.2 °F 39.2 °F 81% 29.20 in 10.0 mi NW 4.6 mph - N/A   Overcast
12:21 PM 48.2 °F - 41.0 °F 76% 29.21 in 10.0 mi NNW 3.5 mph - N/A   Overcast
12:41 PM 48.2 °F - 41.0 °F 76% 29.22 in 10.0 mi NW 4.6 mph - N/A   Overcast
1:01 PM 46.4 °F - 41.0 °F 81% 29.23 in 10.0 mi Calm Calm - N/A   Overcast
1:21 PM 48.2 °F - 41.0 °F 76% 29.23 in 10.0 mi Calm Calm - N/A   Overcast
1:41 PM 48.2 °F - 41.0 °F 76% 29.23 in 10.0 mi Calm Calm - N/A   Overcast
2:01 PM 48.2 °F - 41.0 °F 76% 29.24 in 10.0 mi NNW 5.8 mph - N/A   Overcast
2:20 PM 48.2 °F - 41.0 °F 76% 29.25 in 10.0 mi NW 4.6 mph - N/A   Overcast
2:41 PM 50.0 °F - 42.8 °F 76% 29.25 in 10.0 mi NW 3.5 mph - N/A   Overcast
3:01 PM 50.0 °F - 41.0 °F 71% 29.26 in 10.0 mi Calm Calm - N/A   Overcast
3:21 PM 50.0 °F - 41.0 °F 71% 29.27 in 10.0 mi Calm Calm - N/A   Overcast
3:41 PM 50.0 °F - 41.0 °F 71% 29.27 in 10.0 mi Calm Calm - N/A   Overcast
4:01 PM 50.0 °F - 41.0 °F 71% 29.27 in 10.0 mi SSW 3.5 mph - N/A   Mostly Cloudy
4:21 PM 50.0 °F - 39.2 °F 66% 29.28 in 10.0 mi Calm Calm - N/A   Mostly Cloudy
4:41 PM 50.0 °F - 39.2 °F 66% 29.28 in 10.0 mi Calm Calm - N/A   Overcast
5:01 PM 50.0 °F - 39.2 °F 66% 29.28 in 10.0 mi West 3.5 mph - N/A   Mostly Cloudy
5:21 PM 50.0 °F - 41.0 °F 71% 29.29 in 10.0 mi WSW 3.5 mph - N/A   Scattered Clouds
5:41 PM 50.0 °F - 41.0 °F 71% 29.30 in 10.0 mi Calm Calm - N/A   Mostly Cloudy
6:01 PM 50.0 °F - 41.0 °F 71% 29.31 in 10.0 mi Calm Calm - N/A   Overcast
6:21 PM 50.0 °F - 41.0 °F 71% 29.32 in 10.0 mi Calm Calm - N/A   Overcast
6:41 PM 50.0 °F - 41.0 °F 71% 29.32 in 10.0 mi Calm Calm - N/A   Overcast
7:01 PM 48.2 °F - 39.2 °F 71% 29.33 in 10.0 mi Calm Calm - N/A   Scattered Clouds
7:21 PM 48.2 °F - 41.0 °F 76% 29.34 in 10.0 mi Calm Calm - N/A   Clear
7:41 PM 44.6 °F - 37.4 °F 76% 29.35 in 10.0 mi Calm Calm - N/A   Clear
8:01 PM 44.6 °F - 37.4 °F 76% 29.35 in 10.0 mi Calm Calm - N/A   Clear
8:41 PM 44.6 °F - 39.2 °F 81% 29.36 in 10.0 mi Calm Calm - N/A   Light Drizzle
9:01 PM 44.6 °F - 39.2 °F 81% 29.36 in 10.0 mi Calm Calm - N/A   Light Drizzle
9:21 PM 44.6 °F - 41.0 °F 87% 29.37 in 10.0 mi Calm Calm - N/A   Clear
9:40 PM 44.6 °F - 41.0 °F 87% 29.37 in 10.0 mi Calm Calm - N/A   Clear
10:01 PM 44.6 °F - 41.0 °F 87% 29.38 in 10.0 mi Calm Calm - N/A   Clear
10:21 PM 44.6 °F - 41.0 °F 87% 29.38 in 10.0 mi Calm Calm - N/A   Clear
10:41 PM 44.6 °F - 41.0 °F 87% 29.38 in 10.0 mi Calm Calm - N/A   Clear
11:01 PM 44.6 °F - 41.0 °F 87% 29.39 in 10.0 mi Calm Calm - N/A   Clear
11:21 PM 44.6 °F - 42.8 °F 93% 29.39 in 10.0 mi Calm Calm - N/A   Clear
11:41 PM 44.6 °F - 42.8 °F 93% 29.40 in 10.0 mi Calm Calm - N/A   Drizzle